Погода в Калининской

Россия / Краснодарский край     45°29′08″N   38°39′42″E
темп.,
°C
ветер,
м/с
пор.,
м/с
влажн.,
%
обл.,
%
осадки,
мм/ч
давл.,
гПа
погр.,
м
21 апреля, ср
ср2100:00+11юз10157684 0.0 10121150
03:00+9юз7148744 0.0 1014541
06:00+9юз51087100 0.0 1016402
09:00+12юз477990 0.0 1018494
12:00+15зюз456267 0.2 10181450
15:00+16зюз4559100 0.4 10181467
18:00+15з35685 0.0 1019338
21:00+10з348487 0.1 102153
22 апреля, чт
чт2200:00+9зсз228829 0.0 102111
03:00+8зсз228993 0.0 102229
06:00+7зсз2291100 0.0 102222
09:00+13сз117394 0.0 1023414
12:00+16ссз115884 0.0 10221008
15:00+18зсз2250100 0.0 10221630
18:00+16сз2364100 0.0 102191
21:00+11с35852 0.2 102390
23 апреля, пт
пт2300:00+9ссз22800 0.0 102320
03:00+8з22820 0.0 102316
06:00+8з11820 0.0 102410
09:00+13юз11670 0.0 1023426
12:00+17юз23530 0.0 10221349
15:00+18юз34465 0.0 10212012
18:00+17зсз126087 0.0 102055
21:00+12ссз3480100 0.0 102083
24 апреля, сб
сб2400:00+11сз2370100 0.0 102064
03:00+9з23765 0.0 102040
06:00+9юз22800 0.0 101925
09:00+14юз47635 0.0 1020662
12:00+18юз79495 0.0 10191954
15:00+18з795331 0.0 10191925
18:00+14зсз56706 0.0 1020596
21:00+10з2285100 0.0 102033
25 апреля, вс
вс2500:00+10сз1180100 0.0 102014
03:00+9ссв2278100 0.0 102019
06:00+8св2281100 0.0 101939
09:00+12всв3466100 0.0 1019361
12:00+11св2377100 0.3 1019386
15:00+10св3590100 1.7 1017330
18:00+10всв4794100 0.6 1016341
21:00+9всв4896100 1.4 1016351